Location: Pardubice
(50.0330°N, 15.7830°E)
Time: 06:13:45
(UTC+02:00)

ISS - Visible Passes

Search period start: 21 July 2018 00:00
Search period end: 31 July 2018 00:00
Orbit: 402 x 408 km, 51.6° (Epoch: 21 July)

Date Brightness Start Highest point End Pass type
(mag) Time Alt. Az. Time Alt. Az. Time Alt. Az.
21 Jul -3.5 01:24:23 10° WNW 01:27:41 65° N 01:30:58 10° E visible
21 Jul -3.8 03:00:56 10° WNW 03:04:11 57° SSW 03:07:26 10° SE visible
21 Jul -4.0 22:55:38 10° WSW 22:58:54 72° SSE 23:02:11 10° ENE visible
22 Jul -3.4 00:32:12 10° W 00:35:28 63° N 00:38:45 10° E visible
22 Jul -4.0 02:08:46 10° WNW 02:12:04 80° SSW 02:15:22 10° ESE visible
22 Jul -2.5 03:45:40 10° W 03:48:13 21° SW 03:50:46 10° SSE visible
22 Jul -3.7 22:03:37 10° SW 22:06:48 49° SSE 22:10:00 10° ENE visible
22 Jul -3.5 23:40:00 10° W 23:43:16 67° N 23:46:33 10° ENE visible
23 Jul -3.8 01:16:36 10° WNW 01:19:54 80° NNE 01:20:49 44° E visible
23 Jul -1.2 02:53:14 10° W 02:53:19 10° W 02:53:19 10° W visible
23 Jul -3.7 22:47:46 10° W 22:51:03 79° NNW 22:54:21 10° ENE visible
24 Jul -3.5 00:24:25 10° WNW 00:27:42 68° N 00:29:05 31° E visible
24 Jul -1.5 02:00:58 10° WNW 02:01:40 15° W 02:01:40 15° W visible
24 Jul -3.9 21:55:35 10° WSW 21:58:53 81° SSE 22:02:10 10° ENE visible
24 Jul -3.4 23:32:12 10° W 23:35:28 63° N 23:38:03 15° E visible
25 Jul -2.5 01:08:45 10° WNW 01:10:39 31° W 01:10:39 31° W visible
25 Jul -3.4 22:39:57 10° W 22:43:13 65° N 22:46:30 10° ENE visible
26 Jul -3.9 00:16:33 10° WNW 00:19:50 86° N 00:19:50 86° N visible
26 Jul -3.6 21:47:41 10° W 21:50:58 74° N 21:54:15 10° ENE visible
26 Jul -3.6 23:24:20 10° WNW 23:27:37 71° N 23:29:08 29° E visible
27 Jul -1.5 01:00:54 10° W 01:01:45 16° W 01:01:45 16° W visible
27 Jul -3.4 22:32:05 10° W 22:35:21 64° N 22:38:27 11° E visible
28 Jul -3.1 00:08:37 10° WNW 00:11:05 44° W 00:11:05 44° W visible
28 Jul -3.4 21:39:48 10° W 21:43:04 63° N 21:46:21 10° E visible
28 Jul -3.9 23:16:23 10° WNW 23:19:40 86° SSW 23:20:27 50° ESE visible
29 Jul -3.7 22:24:08 10° WNW 22:27:25 75° NNE 22:29:50 17° E visible
30 Jul -2.2 00:00:43 10° W 00:02:28 25° WSW 00:02:28 25° WSW visible
30 Jul -3.5 21:31:51 10° WNW 21:35:07 66° N 21:38:24 10° E visible
30 Jul -3.7 23:08:23 10° WNW 23:11:37 55° SSW 23:11:53 52° S visible
